Flag for U.S.A. Weather past 2 weeks in Stockton, California, U.S.A.

Now
54 °F

Clear.


Feels Like: 52 °F
Forecast: 54 / 82 °F
Wind: 8 mph from Northwest

Location: Stockton Metropolitan Airport

Current Time: May 25, 2015 at 4:36:01 AM

Latest Report: May 25, 2015 at 3:55 AM


Visibility: 10 mi

Pressure: 29.90 "Hg

Humidity: 83%

Dew point: 49 °F

Location of StocktonLocation

Historic Weather in Stockton — Graph

°F

Stockton temperature yesterday

Maximum temperature yesterday: 83 °F (at 2:55 PM)
Minimum temperature yesterday: 52 °F (at 4:55 AM)
Average temperature yesterday: 66 °F

Past Weeks' High & Low Weather Summary

 TemperatureHumidityPressure
High83 °F (May 10, 3:55 PM)93% (May 21, 4:55 AM)30.08 "Hg (May 21, 4:55 AM)
Low48 °F (May 14, 4:55 AM)21% (May 10, 3:55 PM)29.76 "Hg (May 14, 1:55 PM)
Average62 °F61%29.93 "Hg
* Reported May 10 2:55 AM — May 25 2:55 AM, Stockton, Weather by CustomWeather, © 2015

Note: Actual official high and low records may vary slightly from our data, if they occured in-between our weather recording intervals... More about our weather records

Advertising

Stockton weather history for previous 24 hours

 ConditionsComfort  
Time TempWeatherWind HumidityBarometerVisibility
2:55 AM
Mon, May 25
52 °FClear.3 mph89%29.90 "Hg10 mi
1:55 AM55 °FClear.7 mph83%29.90 "Hg8 mi
12:55 AM56 °FClear.9 mph81%29.91 "Hg10 mi
11:55 PM
Sun, May 24
57 °FClear.9 mph81%29.91 "Hg10 mi
10:55 PM58 °FClear.13 mph78%29.91 "Hg10 mi
9:55 PM58 °FClear.16 mph78%29.90 "Hg10 mi
8:55 PM61 °FSunny.16 mph70%29.89 "Hg10 mi
7:55 PM66 °FSunny.16 mph59%29.87 "Hg10 mi
6:55 PM74 °FSunny.17 mph45%29.86 "Hg10 mi
5:55 PM80 °FSunny.16 mph34%29.85 "Hg10 mi
4:55 PM82 °FSunny.15 mph33%29.87 "Hg10 mi
3:55 PM83 °FSunny.12 mph33%29.88 "Hg10 mi
2:55 PM83 °FSunny.10 mph34%29.89 "Hg10 mi
1:55 PM81 °FSunny.9 mph37%29.91 "Hg10 mi
12:55 PM78 °FSunny.6 mph40%29.93 "Hg10 mi
11:55 AM74 °FSunny.No wind46%29.95 "Hg10 mi
10:55 AM72 °FSunny.7 mph49%29.96 "Hg10 mi
9:55 AM68 °FSunny.7 mph55%29.97 "Hg10 mi
8:55 AM64 °FSunny.9 mph63%29.97 "Hg10 mi
7:55 AM59 °FSunny.9 mph69%29.97 "Hg10 mi
6:55 AM55 °FSunny.No wind80%29.96 "Hg10 mi
5:55 AM52 °FClear.No wind86%29.95 "Hg10 mi
4:55 AM52 °FClear.No wind83%29.94 "Hg10 mi
Weather by CustomWeather, © 2015

See weather overviewHow to use our weather pages